Location: Lawrence
(38.9720°N, 95.2350°W)
Time: 18:54:59
(UTC-05:00)

JAS-1B - Visible Passes

Search period start: 22 October 2014 00:00
Search period end: 01 November 2014 00:00
Orbit: 911 x 1744 km, 99.1° (Epoch: 21 October)

Date Brightness Start Highest point End Pass type
(mag) Time Alt. Az. Time Alt. Az. Time Alt. Az.
22 Oct 9.7 03:38:14 10° N 03:38:21 11° N 03:38:21 11° N visible
23 Oct 9.6 03:57:24 10° N 03:57:34 11° N 03:57:34 11° N visible
24 Oct 9.6 04:16:40 10° N 04:16:47 11° N 04:16:47 11° N visible
